TimeEDT,TemperatureF,Dew PointF,Humidity,Sea Level PressureIn,VisibilityMPH,Wind Direction,Wind SpeedMPH,Gust SpeedMPH,PrecipitationIn,Events,Conditions,WindDirDegrees,DateUTC
12:15 AM,71.6,71.6,100,30.04,10.0,Calm,Calm,-,N/A,,Mostly Cloudy,0,2013-08-16 04:15:00
12:35 AM,71.6,71.6,100,30.03,10.0,Calm,Calm,-,N/A,,Mostly Cloudy,0,2013-08-16 04:35:00
12:55 AM,71.6,71.6,100,30.03,10.0,Calm,Calm,-,N/A,,Clear,0,2013-08-16 04:55:00
1:15 AM,71.6,71.6,100,30.02,10.0,Calm,Calm,-,N/A,,Scattered Clouds,0,2013-08-16 05:15:00
1:55 AM,71.6,71.6,100,30.01,10.0,Calm,Calm,-,N/A,,Overcast,0,2013-08-16 05:55:00
2:15 AM,71.6,71.6,100,30.00,10.0,East,3.5,-,N/A,,Overcast,100,2013-08-16 06:15:00
2:35 AM,71.6,71.6,100,30.00,5.0,East,3.5,-,N/A,,Overcast,90,2013-08-16 06:35:00
2:55 AM,71.6,71.6,100,29.99,2.5,Calm,Calm,-,N/A,,Overcast,0,2013-08-16 06:55:00
3:15 AM,71.6,71.6,100,29.99,2.0,East,3.5,-,N/A,,Overcast,90,2013-08-16 07:15:00
3:35 AM,71.6,71.6,100,29.99,1.8,ESE,3.5,-,N/A,,Overcast,110,2013-08-16 07:35:00
3:55 AM,71.6,71.6,100,29.99,1.2,East,3.5,-,N/A,,Overcast,100,2013-08-16 07:55:00
4:15 AM,71.6,71.6,100,30.00,1.5,ESE,3.5,-,N/A,,Overcast,110,2013-08-16 08:15:00
4:35 AM,71.6,71.6,100,30.00,1.5,ESE,4.6,-,N/A,,Overcast,120,2013-08-16 08:35:00
4:55 AM,71.6,71.6,100,30.00,1.0,ESE,3.5,-,N/A,,Overcast,110,2013-08-16 08:55:00
5:15 AM,71.6,71.6,100,30.00,0.8,ESE,3.5,-,N/A,,Overcast,120,2013-08-16 09:15:00
5:35 AM,71.6,71.6,100,30.01,0.8,SE,3.5,-,N/A,,Overcast,140,2013-08-16 09:35:00
5:55 AM,71.6,71.6,100,30.01,1.8,ESE,3.5,-,N/A,,Overcast,110,2013-08-16 09:55:00
6:15 AM,71.6,71.6,100,30.01,5.0,SE,5.8,-,N/A,,Overcast,140,2013-08-16 10:15:00
6:35 AM,73.4,73.4,100,30.01,7.0,ESE,3.5,-,N/A,,Overcast,120,2013-08-16 10:35:00
6:55 AM,73.4,73.4,100,30.02,7.0,SE,3.5,-,N/A,,Overcast,140,2013-08-16 10:55:00
7:15 AM,73.4,73.4,100,30.02,5.0,SE,3.5,-,N/A,,Overcast,130,2013-08-16 11:15:00
7:35 AM,73.4,73.4,100,30.03,5.0,SSE,4.6,-,N/A,,Overcast,150,2013-08-16 11:35:00
7:55 AM,73.4,73.4,100,30.02,7.0,SE,6.9,-,N/A,,Overcast,140,2013-08-16 11:55:00
8:15 AM,73.4,73.4,100,30.02,5.0,SSE,4.6,-,N/A,,Overcast,150,2013-08-16 12:15:00
8:35 AM,73.4,73.4,100,30.03,10.0,South,3.5,-,N/A,,Overcast,180,2013-08-16 12:35:00
8:55 AM,75.2,73.4,94,30.03,10.0,South,4.6,-,N/A,,Overcast,170,2013-08-16 12:55:00
9:15 AM,77.0,73.4,89,30.03,10.0,SSE,4.6,-,N/A,,Mostly Cloudy,150,2013-08-16 13:15:00
9:35 AM,78.8,75.2,89,30.03,10.0,South,3.5,-,N/A,,Mostly Cloudy,180,2013-08-16 13:35:00
9:55 AM,80.6,75.2,84,30.03,10.0,South,6.9,-,N/A,,Scattered Clouds,190,2013-08-16 13:55:00
10:15 AM,80.6,75.2,84,30.04,10.0,SW,6.9,-,N/A,,Scattered Clouds,220,2013-08-16 14:15:00
10:35 AM,80.6,75.2,84,30.04,10.0,SSW,6.9,-,N/A,,Mostly Cloudy,210,2013-08-16 14:35:00
10:55 AM,82.4,75.2,79,30.04,10.0,SSW,6.9,-,N/A,,Mostly Cloudy,200,2013-08-16 14:55:00
11:15 AM,82.4,73.4,74,30.03,10.0,SSW,4.6,-,N/A,,Scattered Clouds,210,2013-08-16 15:15:00
11:35 AM,82.4,73.4,74,30.03,10.0,WSW,4.6,-,N/A,,Scattered Clouds,240,2013-08-16 15:35:00
11:55 AM,86.0,73.4,66,30.03,10.0,SSW,8.1,-,N/A,,Mostly Cloudy,200,2013-08-16 15:55:00
12:15 PM,86.0,73.4,66,30.02,10.0,SSW,4.6,-,N/A,,Scattered Clouds,200,2013-08-16 16:15:00
12:35 PM,86.0,73.4,66,30.01,10.0,South,5.8,-,N/A,,Scattered Clouds,180,2013-08-16 16:35:00
12:55 PM,86.0,75.2,70,30.00,10.0,West,4.6,-,N/A,,Scattered Clouds,260,2013-08-16 16:55:00
1:15 PM,86.0,75.2,70,29.99,10.0,South,5.8,-,N/A,,Scattered Clouds,180,2013-08-16 17:15:00
1:35 PM,86.0,73.4,66,29.99,10.0,Calm,Calm,-,N/A,,Scattered Clouds,0,2013-08-16 17:35:00
1:55 PM,87.8,75.2,66,29.99,10.0,SSW,4.6,-,N/A,,Scattered Clouds,210,2013-08-16 17:55:00
2:15 PM,87.8,75.2,66,29.99,10.0,Calm,Calm,-,N/A,,Scattered Clouds,0,2013-08-16 18:15:00
2:35 PM,87.8,73.4,62,29.98,10.0,SSW,4.6,-,N/A,,Scattered Clouds,200,2013-08-16 18:35:00
2:55 PM,87.8,73.4,62,29.98,10.0,SW,5.8,-,N/A,,Scattered Clouds,220,2013-08-16 18:55:00
3:15 PM,89.6,73.4,59,29.97,10.0,WSW,6.9,-,N/A,,Mostly Cloudy,240,2013-08-16 19:15:00
3:35 PM,87.8,73.4,62,29.96,10.0,Calm,Calm,-,N/A,,Mostly Cloudy,0,2013-08-16 19:35:00
3:55 PM,86.0,73.4,66,29.97,10.0,West,5.8,-,N/A,Thunderstorm,Mostly Cloudy,260,2013-08-16 19:55:00
4:15 PM,80.6,77.0,89,29.97,4.0,SSW,8.1,17.3,N/A,Rain,Rain,200,2013-08-16 20:15:00
4:35 PM,77.0,75.2,94,29.97,10.0,SSE,3.5,-,N/A,Rain,Light Rain,160,2013-08-16 20:35:00
4:55 PM,80.6,77.0,89,29.97,10.0,Calm,Calm,-,N/A,,Overcast,0,2013-08-16 20:55:00
5:15 PM,80.6,77.0,89,29.98,10.0,SSW,5.8,-,N/A,,Mostly Cloudy,210,2013-08-16 21:15:00
5:35 PM,80.6,77.0,89,29.98,10.0,SSW,8.1,-,N/A,Thunderstorm,Thunderstorm,210,2013-08-16 21:35:00
5:55 PM,78.8,77.0,94,29.99,10.0,SSW,8.1,-,N/A,,Overcast,200,2013-08-16 21:55:00
6:15 PM,78.8,77.0,94,30.00,10.0,Calm,Calm,-,N/A,,Light Drizzle,0,2013-08-16 22:15:00
6:35 PM,78.8,73.4,83,30.01,10.0,SSW,6.9,-,N/A,,Overcast,200,2013-08-16 22:35:00
6:55 PM,77.0,73.4,89,30.01,10.0,SSW,4.6,-,N/A,,Mostly Cloudy,210,2013-08-16 22:55:00
7:15 PM,77.0,73.4,89,30.02,10.0,WSW,6.9,-,N/A,Rain,Light Rain,240,2013-08-16 23:15:00
7:35 PM,77.0,73.4,89,30.03,10.0,West,4.6,-,N/A,Rain,Rain,270,2013-08-16 23:35:00
7:55 PM,75.2,73.4,94,30.04,10.0,WNW,5.8,-,N/A,Rain,Rain,300,2013-08-16 23:55:00
8:15 PM,75.2,73.4,94,30.04,10.0,Calm,Calm,-,N/A,Rain,Light Rain,0,2013-08-17 00:15:00
8:35 PM,73.4,73.4,100,30.05,10.0,North,3.5,-,N/A,Rain,Light Rain,350,2013-08-17 00:35:00
8:55 PM,73.4,73.4,100,30.05,10.0,Calm,Calm,-,N/A,Rain,Light Rain,0,2013-08-17 00:55:00
9:15 PM,73.4,73.4,100,30.05,10.0,Calm,Calm,-,N/A,,Mostly Cloudy,0,2013-08-17 01:15:00
9:35 PM,73.4,73.4,100,30.05,10.0,Calm,Calm,-,N/A,Rain,Light Rain,0,2013-08-17 01:35:00
9:55 PM,73.4,73.4,100,30.06,10.0,Calm,Calm,-,N/A,Rain,Light Rain,0,2013-08-17 01:55:00
10:15 PM,73.4,73.4,100,30.07,10.0,Calm,Calm,-,N/A,Rain,Light Rain,0,2013-08-17 02:15:00
10:35 PM,73.4,73.4,100,30.07,5.0,Calm,Calm,-,N/A,Rain,Rain,0,2013-08-17 02:35:00
10:55 PM,73.4,73.4,100,30.07,10.0,Calm,Calm,-,N/A,Rain,Light Rain,0,2013-08-17 02:55:00
11:15 PM,73.4,73.4,100,30.07,10.0,Calm,Calm,-,N/A,Rain,Rain,0,2013-08-17 03:15:00
11:35 PM,73.4,73.4,100,30.07,10.0,Calm,Calm,-,N/A,Rain,Rain,0,2013-08-17 03:35:00
11:55 PM,73.4,73.4,100,30.06,10.0,Calm,Calm,-,N/A,,Overcast,0,2013-08-17 03:55:00